Find Starlink 11731

NORAD ID: 64371 Int'l Des: 2025-127 Owner: SPXS Country: US Constellation: starlink operational
LEOCIRCULAR

Live Position

Loading 3D Globe...

About Starlink 11731

Description loading...

Upcoming Passes

Passes for default location (London). Set your location on the main map for personalized predictions.

Altitude History

Loading altitude history...

Two-Line Element Set

1 64371U 25127B 26106.67724299 .00193773 00000-0 14767-2 0 9996
2 64371 43.0023 215.8446 0001823 262.3466 97.7195 15.70871142 49476
Epoch: Apr 16, 2026 • Age: 20 hours

Current Status

Altitude 357.8 km
Velocity 7.70 km/s
Sub-Earth Point 34.77°N, 51.86°W
Launch Date Jun 13, 2025
Age 0.8 years
Type internet

Technical Details

Classification Payload
Mass 960.00 kg
Dry Mass 910.00 kg
Total Mass 960.00 kg
Length 0.30 m
Diameter 4.10 m
Span 29.00 m
Shape Box + pan
Manufacturer SPXS
Bus Type Starlink V2MD
Phase Status In Orbit
Owner/State SPXS/US

Most Searched